Flag for Germany Weather past 2 weeks in Potsdam, Brandenburg, Germany

Now
65 °F

Passing clouds.


Feels Like: 65 °F
Forecast: 55 / 68 °F
Wind: 7 mph from Southwest

Location: Potsdam

Current Time: Jun 3, 2015 at 1:38:50 AM

Latest Report: Jun 3, 2015 at 1:00 AM


Visibility: 25 mi

Pressure: 29.92 "Hg

Humidity: 61%

Dew point: 51 °F

Location of PotsdamLocation

Historic Weather in Potsdam — Graph

°F

Potsdam temperature yesterday

Maximum temperature yesterday: 75 °F (at 4:00 PM)
Minimum temperature yesterday: 49 °F (at 1:00 AM)
Average temperature yesterday: 63 °F

Past Weeks' High & Low Weather Summary

 TemperatureHumidityPressure
High75 °F (Jun 2, 4:00 PM)100% (Jun 2, 12:00 AM)30.32 "Hg (Jun 2, 12:00 AM)
Low40 °F (May 31, 5:00 AM)26% (May 25, 3:00 PM)29.59 "Hg (May 19, 4:00 AM)
Average57 °F64%29.98 "Hg
* Reported Midnight between May 18 and May 19 — Midnight between Jun 2 and Jun 3, Potsdam, Weather by CustomWeather, © 2015

Note: Actual official high and low records may vary slightly from our data, if they occured in-between our weather recording intervals... More about our weather records

Advertising

Potsdam weather history for previous 24 hours

 ConditionsComfort  
Time TempWeatherWind HumidityBarometerVisibility
12:00 AM
Wed, Jun 3
66 °FPassing clouds.7 mph59%29.92 "Hg25 mi
11:00 PM
Tue, Jun 2
67 °FPassing clouds.7 mph55%29.91 "Hg22 mi
10:00 PM69 °FPassing clouds.5 mph55%29.91 "Hg22 mi
9:00 PM71 °FPartly sunny.7 mph48%29.90 "Hg22 mi
8:00 PM72 °FScattered clouds.6 mph44%29.89 "Hg25 mi
7:00 PM72 °FPartly sunny.7 mph42%29.89 "Hg28 mi
6:00 PM75 °FOvercast.8 mph38%29.89 "Hg28 mi
5:00 PM74 °FOvercast.9 mph39%29.88 "Hg28 mi
4:00 PM75 °FPartly sunny.10 mph38%29.88 "Hg28 mi
3:00 PM73 °FPartly sunny.9 mph39%29.90 "Hg28 mi
2:00 PM71 °FOvercast.10 mph47%29.89 "Hg28 mi
1:00 PM72 °FOvercast.9 mph49%29.90 "Hg28 mi
12:00 PM68 °FPartly sunny.9 mph49%29.91 "Hg28 mi
11:00 AM65 °FScattered clouds.8 mph57%29.92 "Hg28 mi
10:00 AM61 °FScattered clouds.9 mph68%29.93 "Hg25 mi
9:00 AM58 °FScattered clouds.6 mph78%29.93 "Hg14 mi
8:00 AM54 °FFog.7 mph97%29.95 "Hg4 mi
7:00 AM52 °FFog.5 mph99%29.96 "Hg2 mi
5:00 AM51 °FFog.3 mph100%29.97 "Hg2 mi
4:00 AM51 °FLow clouds.2 mph100%30.00 "Hg3 mi
3:00 AM51 °FLow clouds.5 mph100%30.00 "Hg2 mi
2:00 AM51 °FFog.3 mph100%30.02 "Hg4 mi
1:00 AM49 °FOvercast.2 mph99%30.03 "Hg6 mi
Weather by CustomWeather, © 2015

See weather overviewHow to use our weather pages